Flag for Canada Weather past 2 weeks in Trois-Rivieres, Quebec, Canada

Now
63 °F

Mild.


Feels Like: 63 °F
Forecast: 55 / 74 °F
Wind: 5 mph from Southeast

Location: Trois Rivieres

Current Time: Jul 2, 2015 at 11:10:18 PM

Latest Report: Jul 2, 2015 at 10:00 PM


Visibility: N/A

Pressure: 29.86 "Hg

Humidity: 76%

Dew point: 55 °F

Location of Trois-RivieresLocation

Historic Weather in Trois-Rivieres — Graph

°F

Trois-Rivieres temperature yesterday

Maximum temperature yesterday: 68 °F (at 8:00 PM)
Minimum temperature yesterday: 62 °F (at 5:00 AM)
Average temperature yesterday: 65 °F

Past Weeks' High & Low Weather Summary

 TemperatureHumidityPressure
High75 °F (Jun 18, 7:00 PM)100% (Jul 1, 5:00 AM)30.17 "Hg (Jul 1, 5:00 AM)
Low49 °F (Jun 20, 5:00 AM)25% (Jun 25, 6:00 PM)29.48 "Hg (Jun 23, 5:00 PM)
Average64 °F72%29.87 "Hg
* Reported Jun 17 10:00 PM — Jul 2 10:00 PM, Trois-Rivieres, Weather by CustomWeather, © 2015

Note: Actual official high and low records may vary slightly from our data, if they occured in-between our weather recording intervals... More about our weather records

Advertising

Trois-Rivieres weather history for previous 24 hours

 ConditionsComfort  
Time TempWeatherWind HumidityBarometerVisibility
10:00 PM
Thu, Jul 2
63 °FMild.5 mph76%29.86 "HgN/A
9:00 PM65 °FMild.5 mph60%29.85 "HgN/A
8:00 PM70 °FMild.3 mph46%29.82 "HgN/A
7:00 PM69 °FMild.7 mph47%29.80 "HgN/A
6:00 PM72 °FMild.9 mph38%29.79 "HgN/A
5:00 PM73 °FMild.12 mph33%29.78 "HgN/A
4:00 PM73 °FMild.10 mph34%29.77 "HgN/A
3:00 PM72 °FMild.13 mph35%29.76 "HgN/A
2:00 PM72 °FMild.14 mph41%29.74 "HgN/A
1:00 PM69 °FMild.9 mph50%29.73 "HgN/A
12:00 PM67 °FMild.8 mph56%29.72 "HgN/A
11:00 AM64 °FMild.8 mph64%29.72 "HgN/A
10:00 AM62 °FCool.12 mph72%29.72 "HgN/A
9:00 AM60 °FCool.13 mph76%29.73 "HgN/A
8:00 AM60 °FCool.15 mph76%29.72 "HgN/A
7:00 AM60 °FCool.15 mph79%29.71 "HgN/A
6:00 AM60 °FCool.14 mph78%29.69 "HgN/A
5:00 AM60 °FCool.12 mph78%29.68 "HgN/A
4:00 AM60 °FCool.9 mph79%29.67 "HgN/A
3:00 AM61 °FCool.13 mph79%29.65 "HgN/A
2:00 AM60 °FCool.8 mph83%29.64 "HgN/A
1:00 AM62 °FCool.15 mph83%29.61 "HgN/A
12:00 AM62 °FMild.10 mph83%29.59 "HgN/A
11:00 PM
Wed, Jul 1
65 °FMild.12 mph87%29.55 "HgN/A
Weather by CustomWeather, © 2015

See weather overviewHow to use our weather pages